Location: Titusville
(28.6120°N, 80.8080°W)
Time: 07:30:33
(UTC-05:00)

OTV 5 (USA 277) - Visible Passes

Search period start: 23 February 2018 00:00
Search period end: 05 March 2018 00:00
Orbit: 404 x 417 km, 43.0° (Epoch: 07 September)

Date Brightness Start Highest point End Pass type
(mag) Time Alt. Az. Time Alt. Az. Time Alt. Az.
23 Feb ? 06:03:22 10° NW 06:04:25 11° NNW 06:05:28 10° N visible
24 Feb ? 05:14:44 11° N 05:14:44 11° N 05:15:06 10° NNE visible
03 Mar ? 05:45:50 10° N 05:47:25 13° NNE 05:49:02 10° NE visible
